Location: Unspecified
(48.2082°N, 0.0000°E)
Time: 16:08:09
(UTC+00:00)

S-56A Canister/Altair - Pass Details

Date: 19 August 2020
Orbit: 633 x 2499 km, 38.9° (Epoch: 23 September)

Event Time Altitude Azimuth Distance (km) Brightness Sun altitude
Exits shadow 03:34:15 12° 195° (SSW) 2,086 9.3 -13.4°
Maximum altitude 03:37:28 21° 151° (SSE) 1,798 9.3 -12.9°
Drops below altitude 10° 03:42:05 10° 105° (ESE) 2,799 11.0 -12.3°
Sets 03:45:57 0° 91° (E) 4,091 12.2 -11.8°
